Regional Weather Roundup
Issued by NWS Charleston, SC

Current Version | Previous Version | Graphics & Text | Print | Product List | Glossary On
Versions: 1 2 3 4 5 6 7 8 9 10 11 12 13 14 15 16 17 18 19 20 21 22 23 24 25 26 27 28 29 30 31 32 33 34 35 36 37 38 39 40 41 42 43 44 45 46 47 48 49 50
000
ASUS42 KCHS 211410
RWRCHS
REGIONAL WEATHER ROUNDUP
NATIONAL WEATHER SERVICE CHARLESTON SC
1000 AM EDT TUE OCT 21 2014

NOTE: "FAIR" INDICATES FEW OR NO CLOUDS BELOW 12,000 FEET WITH NO
SIGNIFICANT WEATHER AND/OR OBSTRUCTIONS TO VISIBILITY.

NOT ALL STATIONS ARE QUALITY CONTROLLED BY THE NATIONAL
WEATHER SERVICE. USE DATA WITH CAUTION...ESPECIALLY
DEWPOINT OBSERVATIONS.

SCZ027-030-031-034>040-042>050-211500-
...SOUTH CAROLINA...

CITY           SKY/WX    TMP DP  RH WIND       PRES   REMARKS
N CHARLESTON   SUNNY     72  55  55 NW6       29.97F
WATERFRONT PRK   N/A     72 N/A N/A NW5         N/A
FORT JOHNSON   NOT AVBL
JOHNS ISLAND   SUNNY     72  64  78 CALM      29.98S
PINOPOLIS        N/A     72  61  68 W3        29.89S
MONCKS CORNER  FAIR      70  61  73 CALM      29.97S
SUMMERVILLE    FAIR      64  61  88 CALM      29.99R
BEAUFORT MCAS  SUNNY     70  57  63 NW5       29.99S
BEAUFORT ARPT  FAIR      68  61  77 NW6       29.98S
HILTON HEAD IS SUNNY     68  66  94 CALM      30.01R
GEORGETOWN     NOT AVBL
WALTERBORO     SUNNY     68  54  60 W3        29.99S
ORANGEBURG     SUNNY     64  53  67 NW5       29.99R
BARNWELL       FAIR      66  55  68 W3        30.00S
AIKEN          FAIR      63  55  77 W6        30.02S
MANNING        FAIR      68  59  73 W3        29.98R
KINGSTREE      NOT AVBL
COLUMBIA       SUNNY     64  53  67 W3        29.98S
SUMTER         SUNNY     64  54  70 W8        29.96S
FLORENCE       SUNNY     66  54  65 W6        29.96F
MYRTLE BEACH   SUNNY     68  55  64 NW7       29.96S
N MYRTLE BEACH SUNNY     66  57  72 NW5       29.95F

$$

GAZ063-065-086>088-099>101-113>116-118-119-134-136>141-150-211500-
...GEORGIA...

CITY           SKY/WX    TMP DP  RH WIND       PRES   REMARKS
SAVANNAH ARPT  SUNNY     71  56  58 N3        30.00R
HUNTER AAF     SUNNY     71  59  67 NW5       29.98R
FORT STEWART   SUNNY     70  55  60 CALM      29.99R
STATESBORO     NOT AVBL
SYLVANIA       SUNNY     68  61  77 W3        30.01S
CLAXTON        FAIR      66  63  88 CALM      30.01S
THOMSON        SUNNY     62  59  90 W3        30.05S
AUGUSTA-BUSH   SUNNY     61  52  72 CALM      30.00R
AUGUSTA-DANIEL SUNNY     64  52  64 NW5       30.00S
SWAINSBORO     FAIR      64  57  77 MISG      30.02S
VIDALIA        SUNNY     68  55  64 N3        30.02R
ALMA           SUNNY     68  56  65 N3        30.01R
WAYCROSS       SUNNY     72  61  69 NE3       30.01S
JESUP          FAIR      73  61  64 NE5       30.01R
BRUNSWICK      SUNNY     72  59  64 N5        30.00S
SAINT SIMONS   SUNNY     72  62  71 N8        30.00R

$$

SCZ027-028-034-036>038-045-046-048>050-GAZ119-141-211500-
...LAKE AND SUPPLEMENTAL COASTAL OBSERVATIONS...

STATION/POSITION TIME  TEMP    WIND        PRES    WAVE   SWELL
                       AIR SEA DIR/SP/G            HT/PER HT/PER/DIR
                 (UTC) (F)     (DEG/KT/KT) (MB)    (FT/S) (FT/S/D)
UPR LAKE MARION  NOT AVBL
WINYAH BAY       1300   63     300/  5     1014.0S
LAKE MURRAY      1300   60     280/  5/  8 1014.9R
ACE BASIN NERRS  1300   62        CALM     1015.0R
FORT PULASKI     1400   69     310/  3/  4 1015.9R
SAPELO ISLAND    NOT AVBL

$$

ANZ835-935-AMZ111-154-330-350-352-354-374-450-454-472-211500-
...C-MAN AND BUOY OBSERVATIONS...

STATION/POSITION TIME  TEMP    WIND        PRES    WAVE   SWELL
                       AIR SEA DIR/SP/G            HT/PER HT/PER/DIR
                 (UTC) (F)     (DEG/KT/KT) (MB)    (FT/S) (FT/S/D)
FOLLY BEACH CMAN 1300   68     300/  3/  5 1015.3R
BUOY 41004       1400   74 79  310/  8/ 10 1014.3R   2/ 8   2/ 8
BUOY 41008       1400   73 76  350/ 12/ 14 1015.3R   2/11   2/120/11
5E ST. MARYS GA  1400      77                N/A     2/10   2/ 90/11
FRYING PAN BUOY  1400   72 75  320/  8/ 10 1014.8S   2/11   2/110/11
BUOY 41025       1400   70     290/ 12/ 16 1013.5R   3/ 5   2/100/ 9
CAPE LOOKOUT NC  1300   69     280/  9/ 10 1013.8S
BUOY 41002       1257   72 80  140/ 10/ 12 1015.5R   3/ 8   3/100/ 8
BUOY 41010       1400   80 80  280/  4/  6 1015.1S   3/ 8   2/ 50/ 8
BUOY 41012       NOT AVBL
ST AUGUSTINE FL  1400   73     290/  4/  6 1016.1R
CAPERS NEARSHORE 1300   71     330/  8/  8   N/A
FRIPP NEARSHORE  NOT AVBL


$$


USA.gov is the U.S. government's official web portal to all federal, state and local government web resources and services.